Salt Flat, TX

7:32 AM MST on February 13, 2016 (GMT -0700)
Guadalupe Pass

Weather History for KGDP - November, 2012

Change the Weather History Date:

Saturday, November 17, 2012

  Actual Average Record
Temperature  
Mean Temperature 55 °F -  
Max Temperature 64 °F 57 °F 71 °F (1998)
Min Temperature 46 °F 39 °F 17 °F (2014)
Degree Days  
Heating Degree Days 10    
Growing Degree Days 5 (Base 50)    
Moisture  
Dew Point 36 °F    
Average Humidity 49    
Maximum Humidity 79    
Minimum Humidity 33    
Precipitation  
Precipitation 0.00 in - - ()
Sea Level Pressure  
Sea Level Pressure 30.15 in    
Wind  
Wind Speed 7 mph (SW)    
Max Wind Speed 14 mph    
Max Gust Speed 18 mph    
Visibility 9 miles    
Events Rain    
Averages and records for this station are not official NWS values.
T = Trace of Precipitation, MM = Missing Value Source: NWS Daily Summary

Daily Weather History Graph

Daily Weather History Graph

Search for Another Location

Airport or City:

Trip Planner

Search our weather history database for the weather conditions in past years. The results will help you decide how hot, cold, wet, or windy it might be!

Date:

Astronomy

Nov. 17, 2012 Rise Set
Actual Time 6:29 AM MST 4:58 PM MST
Civil Twilight 6:03 AM MST 5:24 PM MST
Nautical Twilight 5:34 AM MST 5:54 PM MST
Astronomical Twilight 5:05 AM MST 6:23 PM MST
Moon 10:16 AM MST (11/17) 9:10 PM MST (11/17)
Length of Visible Light 11h 20m
Length of Day
10h 28m
Waxing Crescent, 21% of the Moon is Illuminated
Nov 17
Waxing Crescent
Nov 20
First Quarter
Nov 28
Full
Dec 6
Last Quarter
Dec 13
New

Hourly Weather History & Observations

Time (MST) Temp. Windchill Dew Point Humidity Pressure Visibility Wind Dir Wind Speed Gust Speed Precip Events Conditions
12:51 AM 46.0 °F 41.4 °F 39.9 °F 79% 30.19 in 9.0 mi ENE 9.2 mph - N/A   Clear
1:51 AM 48.0 °F - 36.0 °F 63% 30.16 in 10.0 mi ENE 4.6 mph - N/A   Clear
2:51 AM 48.0 °F - 33.1 °F 56% 30.14 in 10.0 mi East 5.8 mph - N/A   Clear
3:51 AM 50.0 °F - 34.0 °F 54% 30.14 in 10.0 mi SE 6.9 mph - N/A   Clear
4:51 AM 48.0 °F - 34.0 °F 58% 30.17 in 10.0 mi SW 6.9 mph - N/A   Clear
5:51 AM 48.9 °F - 33.1 °F 54% 30.17 in 10.0 mi SW 4.6 mph - N/A   Clear
6:51 AM 48.0 °F - 34.0 °F 58% 30.19 in 8.0 mi SW 5.8 mph - N/A   Clear
7:51 AM 51.1 °F - 34.0 °F 52% 30.20 in 9.0 mi Calm Calm - N/A   Clear
8:51 AM 55.0 °F - 35.1 °F 47% 30.19 in 8.0 mi WSW 6.9 mph - N/A   Clear
9:51 AM 55.9 °F - 35.1 °F 45% 30.21 in 8.0 mi WSW 10.4 mph - N/A   Clear
10:51 AM 54.0 °F - 34.0 °F 47% 30.22 in 8.0 mi SW 10.4 mph - N/A   Clear
11:51 AM 57.0 °F - 33.1 °F 40% 30.18 in 9.0 mi WSW 9.2 mph - N/A   Clear
12:51 PM 64.9 °F - 35.1 °F 33% 30.12 in 8.0 mi SW 13.8 mph 18.4 mph N/A   Clear
1:51 PM 62.1 °F - 36.0 °F 38% 30.12 in 8.0 mi WSW 12.7 mph - N/A   Overcast
2:51 PM 61.0 °F - 36.0 °F 39% 30.12 in 8.0 mi WSW 8.1 mph - N/A   Overcast
3:51 PM 59.0 °F - 37.0 °F 44% 30.12 in 8.0 mi West 3.5 mph - 0.00 in Rain Light Rain
4:51 PM 60.1 °F - 36.0 °F 41% 30.13 in 8.0 mi NNW 5.8 mph - 0.00 in   Overcast
5:51 PM 60.1 °F - 36.0 °F 41% 30.12 in 10.0 mi Calm Calm - N/A   Overcast
6:51 PM 59.0 °F - 36.0 °F 42% 30.14 in 9.0 mi Calm Calm - N/A   Overcast
7:51 PM 55.9 °F - 39.9 °F 55% 30.13 in 9.0 mi ENE 5.8 mph - N/A   Mostly Cloudy
8:51 PM 59.0 °F - 39.0 °F 48% 30.11 in 10.0 mi SSW 8.1 mph - N/A   Clear
9:51 PM 57.0 °F - 39.0 °F 51% 30.09 in 10.0 mi SW 5.8 mph - N/A   Clear
10:51 PM 57.9 °F - 39.0 °F 49% 30.09 in 10.0 mi WSW 8.1 mph - N/A   Clear
11:51 PM 55.9 °F - 39.0 °F 53% 30.08 in 10.0 mi WSW 9.2 mph - N/A   Clear